Wind_Speed
53 53 53 52 52 53 52 52 53 53 53 53 54 54 55 56 61 64 64 63 62 61 59 57 54 51 49 49 50 51 52 53 53 53 52 51 50 48 48 48 48 48 47 47 47 47 46 46 45 43 41 40 40 39 38 38 37 35 35 36 37 40 43 46 45 41 37 37 38 36 33 31 32 32 32 33 34 35 35 36 35 34 33 34 35
51 50 49 49 50 51 51 51 52 52 51 52 53 53 54 56 58 62 65 66 64 62 59 57 53 51 50 50 50 51 51 50 50 49 49 48 46 45 45 45 45 44 44 44 44 43 42 41 41 40 39 39 39 39 39 40 39 38 38 38 38 39 42 45 47 45 41 39 39 37 35 34 35 35 36 37 38 37 37 37 36 36 36 37 38
48 47 47 47 48 49 50 50 50 50 50 50 51 53 53 55 56 59 61 61 60 58 55 52 50 49 48 47 47 48 48 48 48 48 47 46 44 43 43 43 42 41 40 41 42 41 40 39 39 39 39 39 40 41 42 42 42 42 42 42 41 41 42 44 48 49 45 43 42 42 41 41 41 40 40 40 40 39 39 39 38 38 38 40 41
47 46 46 46 47 48 48 48 48 48 49 49 50 51 52 53 54 56 58 58 57 56 53 51 49 48 47 45 44 45 45 46 46 46 46 47 46 45 45 45 44 43 42 41 41 41 40 39 39 39 40 40 41 42 43 42 41 42 43 43 42 41 42 43 46 47 46 43 42 42 43 43 42 42 41 41 41 41 40 39 39 39 41 43 43
47 46 46 46 46 47 47 46 46 46 47 48 49 50 51 51 53 54 55 56 56 56 54 53 51 49 47 45 44 44 44 44 44 45 46 48 48 48 47 46 46 46 45 43 41 41 40 39 39 38 38 38 39 40 40 39 39 38 38 38 37 37 39 42 43 43 42 40 39 41 42 42 41 41 40 41 42 42 41 40 41 42 44 45 43
47 46 45 45 45 45 45 44 44 45 46 47 48 49 50 51 52 53 54 55 55 55 54 54 52 50 49 48 48 48 47 46 46 45 46 46 47 47 47 46 46 46 46 44 41 40 40 38 37 36 35 35 35 36 36 35 34 33 32 32 33 35 38 40 41 40 38 37 37 38 39 39 39 39 39 40 42 42 42 43 43 44 46 45 44
46 46 45 44 45 44 43 43 43 44 46 47 49 49 50 50 51 52 53 53 54 54 54 54 53 52 52 52 53 52 50 49 49 48 47 46 44 44 44 44 45 46 45 43 40 39 39 38 36 35 34 34 34 33 33 32 31 31 31 32 33 35 37 39 39 37 36 36 36 37 37 38 38 39 39 40 41 42 43 44 44 43 43 44 44
47 46 44 44 45 44 42 42 43 44 46 47 48 49 49 49 50 50 51 52 52 52 52 53 53 52 52 52 52 50 49 49 49 50 48 47 45 44 43 42 42 43 43 42 41 40 40 38 36 35 34 33 33 33 32 31 31 32 32 34 34 35 37 37 37 35 34 34 35 37 38 39 39 40 41 41 41 41 42 43 42 41 42 42 43
48 46 44 45 45 43 42 43 44 45 47 47 48 48 48 48 48 49 49 50 50 51 50 50 50 50 49 50 49 48 48 48 48 48 47 46 45 45 44 42 40 41 42 42 41 41 41 40 39 37 36 35 34 33 33 33 33 34 34 34 34 34 35 35 35 34 34 35 37 39 40 41 42 42 42 41 40 39 40 41 40 41 42 42 42
47 45 45 46 45 44 43 43 44 45 46 46 46 46 46 46 47 48 48 49 49 48 48 48 48 49 49 49 49 47 46 45 44 43 42 42 43 42 42 40 39 39 40 41 41 41 42 42 41 40 38 37 36 35 35 36 36 35 35 34 33 32 33 34 34 33 34 35 37 40 41 42 43 43 42 41 39 39 40 40 40 40 41 41 41
46 45 46 46 45 44 44 44 44 44 45 45 45 45 45 45 46 46 47 47 48 48 47 47 47 48 48 47 46 45 43 42 40 39 39 39 39 39 39 39 39 39 39 41 41 41 41 41 40 39 38 38 37 38 38 38 37 36 34 33 31 31 31 33 34 35 35 36 38 40 42 42 43 42 41 40 40 40 41 40 40 40 40 40 40
46 45 46 46 46 45 44 44 44 44 44 44 44 44 44 44 44 44 44 45 45 46 46 46 46 45 45 45 44 44 42 40 39 38 37 37 37 37 38 40 41 40 40 40 41 41 41 40 40 39 39 39 39 39 39 39 38 37 35 33 32 31 31 32 34 36 37 38 39 40 42 42 42 41 40 41 41 42 42 42 41 41 41 40 39
46 46 47 47 45 45 44 44 44 44 44 43 43 43 43 43 43 44 44 44 44 44 44 44 44 44 44 44 43 42 41 40 40 39 38 38 37 36 37 40 43 43 42 42 41 41 41 41 41 41 41 41 41 40 39 39 38 37 35 34 33 33 32 33 34 35 36 37 39 40 41 42 42 41 41 42 42 43 43 43 43 42 42 41 39
44 44 45 45 44 45 45 44 44 44 43 42 42 42 42 43 43 43 44 44 45 44 44 44 43 43 43 43 42 42 41 41 41 41 40 39 38 37 38 40 43 44 44 43 42 41 41 39 39 40 40 40 40 40 38 37 37 36 36 35 35 35 34 35 36 37 38 39 40 41 42 43 42 43 44 44 43 43 44 45 44 44 43 42 39
42 42 43 44 44 44 44 43 43 42 41 40 40 40 41 42 42 42 43 43 43 43 42 41 41 41 41 41 42 43 43 43 43 42 41 40 39 38 38 39 42 44 46 46 45 43 42 41 40 39 38 38 38 37 36 36 36 36 37 37 37 37 36 37 38 39 40 41 42 43 44 43 44 46 47 46 44 43 44 45 45 45 45 44 40
39 40 41 41 41 41 41 41 39 39 38 38 38 38 38 39 39 39 39 40 41 41 40 39 38 38 38 39 40 41 42 43 43 43 42 40 39 38 38 39 41 44 46 47 47 46 45 44 44 42 40 39 38 37 37 37 38 38 39 39 39 39 39 40 40 41 41 42 44 44 45 46 48 49 48 46 43 43 44 46 47 47 46 45 43
39 39 38 38 38 38 37 36 35 34 35 34 34 34 34 33 32 32 35 36 37 36 36 35 36 36 36 35 34 33 34 36 37 38 38 37 37 37 38 39 41 44 46 48 48 48 47 46 46 45 44 43 42 41 41 41 41 41 41 42 43 43 44 44 44 44 44 44 45 46 47 49 49 48 46 45 44 44 45 47 47 46 46 46 45
38 38 37 36 36 34 32 30 30 29 30 30 29 30 29 25 23 24 26 26 25 24 25 26 29 30 30 28 27 27 29 31 32 33 34 35 35 35 36 38 39 42 45 47 48 49 49 48 47 46 45 44 44 43 43 43 43 44 44 45 46 47 47 47 47 47 47 47 48 49 49 48 47 45 45 45 45 46 47 47 46 46 46 47 46
37 35 34 34 32 30 28 26 26 26 27 28 28 28 25 21 19 20 20 19 17 16 17 20 23 26 27 27 27 29 32 33 34 34 34 35 35 35 35 36 37 40 42 45 46 47 47 47 47 46 45 44 44 44 44 44 45 45 47 47 48 49 49 49 49 49 49 49 49 49 48 47 46 46 46 46 47 48 48 48 47 47 48 48 49
34 32 31 31 30 28 27 26 25 25 26 28 28 28 25 23 21 20 19 20 19 18 18 19 22 25 28 29 30 31 32 33 34 35 35 36 36 36 37 38 39 41 43 45 46 47 47 47 46 46 46 46 46 46 46 46 46 47 48 48 49 50 50 50 50 50 50 50 49 49 48 48 48 48 49 49 50 50 49 49 48 50 51 51 51
31 30 28 28 27 27 26 26 26 26 26 27 27 28 28 28 28 25 23 22 21 20 19 19 22 24 26 27 30 32 33 33 33 34 35 37 39 40 42 43 46 47 47 46 47 48 48 49 49 49 49 49 49 49 49 48 48 49 49 49 50 50 50 50 50 50 50 50 50 50 50 50 50 51 51 51 51 51 51 51 51 53 54 53 52
29 27 22 20 22 25 25 24 25 25 26 27 28 30 31 32 33 32 30 29 28 27 25 23 24 26 28 30 33 35 37 38 39 38 38 40 42 45 47 49 51 51 50 49 49 49 49 50 50 51 51 51 51 50 50 50 50 50 50 50 50 50 50 50 50 51 51 51 52 52 52 52 52 52 52 52 52 52 53 53 55 55 54 52 52
29 25 20 20 24 28 30 29 26 22 21 25 29 32 34 35 35 34 32 31 32 34 34 34 34 35 37 39 42 44 46 47 48 47 46 46 46 48 50 52 53 52 52 51 50 50 50 50 50 50 50 51 51 51 50 50 50 50 50 50 51 51 51 52 52 53 53 54 54 54 54 54 54 54 54 54 54 54 54 55 56 55 54 52 51
30 30 31 31 33 35 36 36 33 27 27 29 28 27 29 32 35 35 34 33 33 34 36 37 38 40 46 49 50 51 50 49 49 50 51 51 51 52 52 52 52 52 52 51 51 51 51 51 51 50 50 50 51 51 51 51 52 52 52 52 53 53 53 53 54 55 55 56 56 57 57 57 57 57 56 56 55 55 55 54 54 54 53 52 50
32 33 35 35 36 38 39 38 33 30 33 32 27 22 22 25 30 33 35 36 35 34 33 32 31 32 38 45 47 44 43 43 44 46 48 50 51 51 51 50 50 50 50 51 51 51 51 51 51 51 51 51 52 52 52 52 53 53 53 54 54 54 55 55 56 57 58 59 59 60 60 60 59 58 57 56 56 56 56 54 53 53 54 53 50
35 35 38 38 37 38 40 38 32 31 35 33 29 23 18 19 26 31 35 37 37 35 32 31 30 26 26 32 35 36 38 41 45 48 49 50 49 49 50 51 51 50 50 50 50 50 51 51 52 52 53 53 54 54 54 54 55 55 55 55 56 56 56 57 58 58 59 60 61 61 61 60 59 58 57 56 57 57 57 56 54 53 53 52 51
36 37 40 43 41 39 39 38 35 34 33 32 29 23 16 15 22 28 32 34 35 36 36 35 36 36 37 38 39 40 44 47 50 52 51 51 51 50 50 51 52 52 51 51 51 51 52 53 53 53 53 54 54 54 55 55 55 56 56 56 57 57 57 58 58 59 59 60 60 60 60 59 58 57 57 56 56 57 58 58 56 54 53 52 52
39 39 41 44 45 42 38 38 39 36 34 33 29 25 23 23 23 22 23 23 26 32 36 39 40 43 48 48 46 47 49 47 46 46 46 48 49 51 52 52 52 53 53 53 53 53 54 54 54 54 54 54 54 54 55 55 56 56 57 57 58 58 59 59 59 60 60 60 59 58 58 58 58 57 57 57 56 57 58 58 57 56 55 54 53
42 43 44 45 45 43 38 37 39 38 39 39 34 29 29 28 27 25 22 21 25 29 32 36 39 43 48 49 48 48 46 40 39 41 44 46 47 49 52 53 53 53 54 54 55 56 56 56 56 56 56 55 55 55 55 56 57 57 58 59 59 60 60 61 61 61 60 59 57 56 56 57 57 57 57 57 57 57 57 58 58 58 58 57 56
46 47 48 47 46 43 39 38 39 40 42 44 41 36 33 32 31 30 25 21 23 27 31 37 42 45 49 51 50 48 44 40 40 41 42 44 45 47 49 51 52 53 55 56 57 58 58 58 58 57 57 57 58 58 57 56 57 57 59 59 60 60 61 61 61 61 60 59 58 58 57 57 57 57 57 58 58 59 59 59 60 60 60 60 59
49 49 50 50 47 44 42 41 42 42 44 47 48 44 39 37 36 34 31 29 28 30 35 40 44 47 48 49 48 47 46 44 42 41 43 44 46 49 51 52 53 55 57 59 59 59 59 59 59 60 60 61 62 61 61 60 58 59 60 61 61 61 61 61 61 61 61 60 59 59 58 58 58 59 60 61 62 62 62 62 61 61 60 60 59
49 49 50 51 49 47 46 45 45 46 48 51 54 52 47 45 45 43 41 39 39 38 40 41 43 46 48 50 53 55 55 51 47 48 53 54 53 55 57 59 60 62 63 63 63 62 61 61 61 62 63 64 65 65 65 64 63 63 64 64 64 64 64 64 64 63 62 61 59 60 60 62 63 64 65 65 64 64 63 62 62 61 61 61 61
51 49 51 54 54 52 51 52 52 52 52 55 59 60 57 54 53 51 49 48 46 44 45 48 51 54 56 59 63 65 65 61 58 59 64 66 65 65 67 69 71 72 71 70 70 69 68 66 65 65 65 66 67 68 68 68 68 68 68 67 66 67 67 67 66 65 63 62 62 64 65 66 67 67 66 65 65 65 66 66 65 64 63 63 62
56 52 52 56 58 58 58 58 58 57 58 59 63 66 65 62 61 59 58 58 58 57 59 63 66 68 69 70 70 70 69 68 68 68 71 73 74 75 76 76 76 74 73 72 72 72 71 70 69 69 69 69 70 70 71 71 72 72 71 69 67 66 66 66 65 65 65 65 66 67 67 67 68 67 67 66 67 68 68 68 67 66 64 64 63
58 56 55 56 58 60 62 63 63 64 65 64 66 68 69 68 68 68 68 69 70 72 74 76 77 77 76 74 73 72 72 72 72 73 74 76 77 78 78 77 75 74 73 72 72 71 71 71 71 71 70 71 71 71 72 72 73 73 72 70 68 67 66 66 66 67 67 68 68 67 67 67 67 67 66 66 65 65 65 66 67 68 68 68 68
57 60 61 61 61 61 62 63 65 68 70 70 70 70 71 72 72 74 76 77 78 80 80 80 80 78 77 75 74 73 73 72 72 73 74 74 75 76 76 75 74 74 73 72 72 72 72 72 72 71 71 71 71 71 71 72 72 72 71 70 70 69 69 69 69 69 70 70 69 69 68 68 67 67 66 66 65 63 64 67 70 70 70 71 73
57 60 64 65 65 65 65 65 66 68 70 72 74 74 75 76 77 79 81 82 83 84 84 83 82 80 78 77 76 75 74 73 72 72 72 72 73 74 74 74 74 74 74 73 73 73 73 73 72 72 72 72 72 72 72 72 72 72 72 71 71 70 70 71 72 72 72 72 72 71 68 67 67 68 69 70 69 68 69 71 72 72 73 74 76
60 61 63 65 66 67 67 68 68 69 70 72 74 75 76 78 80 81 82 83 84 84 84 84 83 82 81 80 79 78 76 75 74 73 73 72 73 73 74 74 75 75 75 75 75 74 74 74 73 73 73 72 73 73 73 73 73 73 73 73 73 72 71 71 73 75 75 75 75 74 72 69 71 73 73 73 74 74 74 75 76 78 80 80 80
63 62 62 63 65 66 67 68 70 71 72 73 74 75 76 77 78 80 80 81 80 80 80 80 80 80 81 81 81 80 79 77 75 74 74 74 74 74 74 74 75 75 75 76 76 76 75 75 75 75 74 74 74 75 75 76 76 76 76 76 75 75 75 75 76 77 77 77 76 76 76 75 76 78 78 77 77 77 77 78 80 81 83 84 84
62 61 61 62 62 63 64 65 67 68 69 70 71 71 71 72 73 74 76 77 77 77 77 78 78 79 79 79 80 79 79 78 76 75 75 74 74 75 75 75 75 76 77 77 77 77 77 77 77 77 77 76 76 76 77 77 76 76 75 75 74 74 74 75 76 75 75 75 75 75 75 75 75 76 75 76 76 76 76 77 78 79 81 82 82
61 62 63 63 63 64 64 64 65 66 66 66 67 68 68 69 69 70 72 74 75 76 77 78 78 78 78 78 78 77 76 76 75 75 75 74 74 74 75 75 76 76 76 76 76 76 76 76 76 76 75 75 75 74 74 74 73 72 72 72 71 71 71 72 72 72 71 72 71 72 72 72 71 71 70 70 71 71 70 70 72 74 75 75 75
64 65 66 67 67 68 68 68 68 69 69 69 69 69 70 70 70 71 72 73 74 75 76 77 77 77 77 77 75 74 73 73 72 72 72 72 72 72 72 72 73 73 73 73 73 73 73 73 74 74 74 73 73 73 72 72 72 72 71 71 71 71 71 71 70 70 70 70 70 71 70 70 69 69 68 68 68 68 68 67 68 71 72 71 71
67 67 68 68 69 71 71 72 72 72 72 72 72 72 72 72 72 73 73 74 74 74 75 75 76 76 76 75 74 73 72 71 71 71 71 71 71 71 71 72 72 72 72 72 72 72 71 72 72 73 73 73 73 73 73 73 74 74 74 73 73 73 73 72 71 71 71 71 72 72 72 71 70 70 70 69 68 69 69 69 70 71 70 70 70
68 68 69 69 70 71 71 72 72 72 72 72 71 71 71 72 72 73 73 74 74 74 74 74 74 75 75 75 75 75 75 74 74 74 74 74 74 74 74 74 74 74 73 73 73 73 73 73 73 73 74 75 75 74 74 75 76 77 77 76 75 75 75 75 74 74 74 75 75 75 75 74 73 72 72 70 70 70 71 72 73 74 73 72 71
69 70 70 70 70 71 71 71 71 72 72 71 71 71 71 72 72 73 73 73 74 74 74 75 75 75 76 76 77 77 77 78 78 78 78 78 78 78 78 78 77 77 76 76 76 77 77 76 76 76 77 78 79 78 77 77 78 79 79 79 79 78 78 77 77 77 78 79 79 79 79 78 77 76 74 73 73 73 73 74 75 76 76 75 75
71 71 71 71 72 72 72 72 72 73 73 73 73 73 74 74 74 74 75 75 75 76 76 76 77 77 78 78 79 79 80 80 81 81 81 81 81 81 81 82 82 81 81 81 81 81 81 81 80 80 80 80 81 81 81 80 81 81 81 81 81 81 81 80 80 80 81 81 82 82 81 80 79 78 77 77 76 77 77 77 78 79 79 79 80
74 74 74 74 74 75 75 74 75 75 76 76 76 76 77 77 77 77 77 78 78 78 78 79 79 80 80 81 81 82 82 83 83 84 84 84 85 85 85 85 86 86 86 86 86 86 86 85 85 84 83 83 83 84 84 83 83 83 82 82 81 82 82 83 82 82 83 84 83 83 83 82 81 81 80 80 80 79 80 81 81 82 82 82 83
78 77 76 77 77 77 76 76 77 77 77 77 78 78 78 79 79 79 80 80 80 80 81 81 82 82 82 83 83 84 85 86 86 87 87 88 88 88 88 89 89 90 90 90 90 90 90 89 88 87 86 85 84 85 85 85 84 83 83 83 82 82 83 83 83 84 85 86 86 85 84 84 83 83 83 82 81 81 82 83 84 85 85 85 85
81 80 79 78 79 79 79 79 79 79 79 79 79 79 80 80 81 81 81 82 82 83 83 84 84 85 85 86 87 87 88 89 89 90 90 91 91 91 92 92 93 93 93 93 93 93 93 92 90 89 88 87 86 86 87 86 85 84 84 84 83 83 83 84 84 85 87 88 88 87 87 86 85 84 83 82 82 82 84 85 86 87 87 87 88
83 82 81 81 81 81 81 82 82 82 82 83 83 82 83 83 84 84 84 85 85 86 86 87 88 88 89 90 90 91 92 92 93 93 94 94 95 95 95 95 96 96 96 95 95 94 94 93 92 90 89 87 86 87 88 87 85 83 83 83 82 82 82 83 84 85 87 89 90 90 89 87 86 84 83 81 81 82 84 86 87 87 88 89 90
87 86 85 85 84 84 84 84 85 85 85 86 86 86 87 87 87 87 88 88 89 89 90 90 91 92 93 94 94 95 95 96 97 97 98 98 99 99 99 99 99 99 98 97 96 95 94 93 92 91 90 88 87 86 87 86 85 83 83 82 82 81 81 82 83 84 85 88 91 92 91 88 86 84 82 81 80 81 83 85 86 87 88 89 91
Wind_Direction
255 255 256 256 255 255 254 254 254 253 253 252 252 251 251 250 248 249 251 254 259 264 266 269 271 272 272 273 273 274 274 274 274 273 273 275 275 274 275 276 277 277 277 277 277 277 277 277 277 276 276 276 275 275 275 276 276 275 273 270 268 268 270 272 274 274 272 268 267 269 271 270 272 274 272 270 273 279 285 293 295 293 292 293 295
256 256 256 255 255 254 254 253 253 253 252 252 252 252 251 250 249 250 252 256 260 263 266 269 270 271 272 273 274 274 274 274 274 274 274 273 272 274 275 277 278 278 278 278 277 276 276 276 275 275 273 272 270 270 273 273 272 273 276 277 276 274 271 270 270 269 267 264 263 264 264 263 265 269 270 272 276 280 287 292 292 291 292 293 294
255 254 254 253 253 253 254 254 253 253 253 252 252 252 251 251 251 251 254 257 260 263 266 268 269 270 272 273 274 274 275 275 274 274 272 269 270 273 275 278 280 281 282 281 278 276 274 273 273 273 272 271 271 271 273 273 273 273 276 278 278 276 274 270 268 267 266 264 262 260 261 262 264 267 271 274 277 281 287 290 291 291 292 293 294
253 253 253 252 253 253 254 254 254 254 253 253 252 252 252 252 252 253 255 257 260 263 264 266 267 269 271 272 272 273 275 275 273 271 269 268 270 273 275 277 279 280 283 284 281 276 273 271 271 271 272 274 275 275 276 277 276 276 276 277 277 277 275 272 269 267 265 264 261 259 260 261 265 269 272 275 279 284 288 289 290 291 292 293 294
252 252 252 253 253 254 255 255 255 255 254 254 254 253 253 253 254 254 255 257 259 260 262 264 266 268 269 268 269 272 274 272 270 270 270 269 271 273 274 275 276 277 280 283 281 276 272 270 270 272 274 276 277 278 277 276 276 276 276 276 277 277 276 274 271 268 264 260 258 257 259 262 265 268 271 276 282 286 287 289 290 291 291 291 290
252 252 252 253 254 254 255 255 255 255 255 255 254 254 254 254 254 255 255 256 257 259 261 263 264 266 266 265 267 270 272 270 270 271 273 272 271 272 272 273 275 277 278 280 279 274 270 269 269 272 275 278 279 278 277 275 275 276 278 280 281 281 278 275 271 267 262 256 253 257 261 263 264 267 273 279 284 286 287 289 289 289 289 289 288
251 251 252 253 253 254 254 254 255 255 254 254 254 254 254 254 254 255 256 257 257 258 259 261 262 264 265 265 267 269 269 269 269 271 273 274 272 273 273 274 275 276 276 276 275 272 268 267 268 272 276 279 279 278 277 275 276 278 281 283 283 282 279 274 269 266 261 256 254 258 262 263 265 271 277 281 283 285 287 288 288 288 289 289 289
249 250 251 252 252 252 253 253 253 253 253 253 254 254 255 255 255 256 256 257 258 258 259 260 261 263 264 264 266 268 268 269 270 271 272 273 273 274 275 277 277 275 274 274 273 270 266 264 268 273 276 277 276 275 275 274 276 280 282 283 282 280 277 271 267 264 261 257 258 259 260 263 270 276 278 279 280 284 287 288 288 289 291 291 291
248 249 250 250 250 251 252 252 252 252 253 254 255 256 257 257 258 258 258 258 258 259 259 260 260 261 262 264 266 268 269 270 271 271 272 274 274 274 275 277 276 274 273 272 271 268 264 263 267 273 275 274 273 272 273 275 277 279 280 280 279 277 274 268 265 263 261 259 258 258 262 268 273 276 276 277 280 285 288 288 288 292 296 295 293
247 248 248 248 250 250 251 251 252 253 254 256 257 258 259 260 260 260 259 259 260 260 260 259 259 260 261 263 265 267 269 271 271 272 274 275 276 276 276 276 275 272 270 268 267 266 265 264 268 273 273 272 271 271 274 276 278 278 278 277 276 274 271 266 261 260 259 258 258 260 265 270 273 274 275 277 281 286 288 285 286 294 300 300 296
246 246 247 249 250 251 251 251 252 254 256 257 258 260 260 261 261 261 261 261 261 260 260 259 259 260 262 263 265 267 269 270 271 274 276 277 277 277 276 275 273 270 268 266 265 266 266 267 269 271 271 270 271 274 277 278 277 277 276 274 272 270 269 266 262 259 258 259 261 264 267 269 271 273 275 278 283 287 286 281 284 293 299 301 299
246 247 248 250 251 252 252 252 253 255 256 258 259 260 261 261 261 261 262 262 261 260 259 259 260 261 262 264 265 267 268 268 271 275 278 280 280 277 274 272 270 269 267 266 265 266 267 268 269 270 270 269 271 275 277 277 275 274 273 271 270 268 267 266 265 263 263 263 265 266 268 270 272 273 275 279 284 287 283 278 282 290 296 300 301
245 247 248 249 251 251 252 253 254 255 256 257 258 259 260 260 260 260 260 260 259 259 259 259 261 262 262 263 264 266 267 268 272 276 279 281 282 280 275 270 269 269 268 268 267 267 268 268 268 269 269 269 271 273 274 273 272 272 271 269 268 266 265 265 265 265 265 265 267 268 269 270 271 273 276 281 285 285 280 277 281 289 294 299 301
244 245 247 248 249 250 252 253 253 254 255 256 257 258 258 258 258 258 258 258 258 259 260 261 262 263 262 263 264 265 267 270 273 276 278 280 281 279 275 271 269 268 269 269 268 269 269 269 269 268 268 269 269 270 269 269 269 270 270 269 268 266 265 265 265 265 265 266 267 267 268 269 270 274 279 282 283 281 278 277 282 288 292 297 299
244 245 246 247 248 250 251 252 254 256 257 257 257 257 258 258 258 259 259 259 259 260 260 260 261 263 263 264 265 266 268 272 274 276 278 279 278 277 274 271 270 269 268 268 268 268 267 268 269 270 269 269 267 267 267 267 268 268 268 269 268 267 267 266 266 267 267 267 267 267 267 268 271 277 281 282 280 278 277 278 282 286 290 294 297
243 244 245 247 248 249 251 253 256 257 258 257 257 257 257 258 259 260 260 259 258 258 259 260 263 265 267 269 270 271 272 274 276 277 278 277 276 275 274 272 270 269 268 268 268 268 268 269 270 270 271 270 268 268 268 269 269 269 269 269 269 269 269 268 268 268 268 268 268 267 267 269 273 278 280 280 279 278 278 279 282 285 288 293 295
240 241 243 244 246 248 251 254 254 254 254 253 254 255 254 255 259 261 261 259 258 259 261 263 265 267 269 271 273 275 277 278 278 278 278 278 276 275 273 271 269 269 268 268 268 269 269 270 271 271 271 270 269 270 270 270 270 270 269 269 270 270 270 270 269 269 268 268 268 268 269 272 275 277 278 279 279 279 279 280 282 285 288 292 293
239 240 242 243 246 249 250 251 250 250 250 249 249 249 248 250 257 260 258 258 258 258 260 262 263 264 265 267 271 275 280 284 284 283 282 281 280 277 274 272 270 269 269 269 269 270 270 271 271 271 271 271 270 270 271 271 271 271 271 270 270 271 271 271 271 270 270 270 270 270 272 274 275 276 278 279 279 279 280 283 285 287 289 291 291
241 241 243 244 246 248 248 248 248 247 246 244 242 241 242 243 246 250 248 244 245 250 256 261 261 260 260 266 274 279 282 284 285 284 284 283 281 279 277 276 274 272 271 271 271 271 271 271 270 270 270 270 271 271 272 272 272 273 272 272 272 271 271 271 272 272 272 272 272 272 274 275 275 277 279 280 280 280 282 285 288 290 291 290 290
243 243 244 245 245 245 247 248 247 247 246 245 242 240 239 236 237 248 249 238 238 248 255 260 261 260 264 270 277 282 284 284 283 282 280 279 279 279 279 278 277 276 275 273 272 271 270 270 269 270 270 270 271 272 272 273 273 273 273 273 273 273 273 272 273 273 273 274 274 275 276 276 277 279 280 281 281 280 281 283 287 290 291 290 290
245 244 243 246 248 249 252 254 252 250 249 248 245 242 240 236 236 248 254 248 247 248 250 259 260 258 261 269 275 279 280 281 281 278 275 273 274 275 277 278 279 278 276 274 272 271 270 270 270 271 272 272 272 273 273 273 273 273 273 274 274 274 274 274 275 275 276 277 277 277 278 278 279 280 281 281 281 280 280 281 285 288 289 288 288
240 247 253 258 260 256 252 252 256 259 258 256 251 245 243 240 240 246 252 257 261 258 258 265 263 259 263 268 271 272 273 275 276 275 274 272 272 272 275 278 278 277 274 273 272 271 271 271 271 272 273 273 273 273 273 273 273 273 273 274 274 274 275 276 276 277 278 278 279 279 279 280 281 281 282 282 282 281 281 282 284 286 286 285 286
230 234 238 242 245 245 238 233 238 243 246 249 250 249 248 245 245 249 251 258 266 268 268 270 268 265 267 271 272 272 273 274 273 273 274 274 274 276 277 278 276 274 273 272 272 272 272 272 272 272 272 273 273 273 273 273 273 273 274 274 275 275 276 276 277 278 279 280 280 281 281 282 282 283 283 283 283 282 282 283 284 284 283 283 284
225 217 215 219 227 235 233 228 227 226 224 228 235 244 251 251 252 254 256 260 267 271 273 273 273 271 269 271 275 276 276 275 272 272 274 276 278 280 280 278 276 274 273 273 273 273 273 274 274 274 274 274 274 275 275 276 276 277 278 278 278 279 279 279 280 281 281 282 282 283 283 284 284 284 284 284 283 283 283 283 284 284 284 284 283
227 217 214 219 227 233 230 225 225 228 227 226 228 234 246 256 261 263 264 265 267 269 269 266 267 270 273 273 274 276 277 276 275 276 279 281 281 280 278 276 276 275 274 273 273 273 273 273 273 273 272 273 273 274 275 275 276 277 278 279 279 280 280 281 281 282 282 283 283 284 284 284 285 284 284 284 284 284 285 285 284 285 286 286 285
231 223 218 221 227 232 229 223 221 225 226 227 229 230 237 255 264 267 268 267 266 265 260 252 246 245 257 266 268 273 278 280 283 285 285 284 282 279 276 273 272 273 273 272 272 272 272 272 272 272 272 272 273 273 274 274 275 276 276 277 277 278 278 279 280 281 282 283 284 284 284 284 284 284 284 284 284 285 286 287 287 286 287 287 286
231 225 222 223 225 229 230 225 220 218 217 218 218 212 209 229 249 260 264 267 270 266 255 248 244 241 249 259 263 270 277 282 285 286 285 284 282 279 275 271 269 270 270 270 271 271 271 272 272 273 274 274 274 275 275 275 276 277 277 278 278 278 278 279 280 281 283 284 284 284 284 283 283 283 283 283 284 285 286 287 287 286 285 284 284
231 228 227 227 227 228 229 227 223 213 205 205 205 199 197 208 222 237 246 252 260 262 256 253 250 247 251 257 261 268 275 280 282 281 280 280 278 276 274 271 269 268 268 269 270 270 272 273 274 274 274 275 275 276 277 277 277 277 278 278 279 279 280 281 282 283 285 285 285 284 283 282 281 281 281 281 281 282 284 284 285 285 284 284 283
233 231 230 228 228 227 225 225 222 212 203 202 205 205 205 208 211 212 214 221 233 245 252 252 248 244 247 254 262 269 273 276 277 274 273 274 273 272 272 270 269 269 269 269 270 271 272 273 274 274 274 274 274 275 276 277 278 279 279 279 280 280 281 282 284 285 285 284 284 283 282 281 280 280 280 281 281 281 282 284 284 284 284 283 283
234 231 229 228 227 225 222 222 222 217 209 207 210 212 211 209 209 209 207 210 222 234 240 242 242 244 250 257 264 268 267 267 273 274 270 268 268 269 269 268 268 269 270 270 271 272 272 273 274 273 273 273 273 273 275 276 279 280 280 280 281 282 282 283 284 284 284 283 283 282 281 280 280 280 281 282 283 283 283 283 283 283 283 283 282
233 230 227 227 226 224 222 223 225 224 218 213 214 216 215 212 213 219 220 213 212 221 231 238 242 247 253 259 265 270 268 265 267 270 268 266 266 267 265 264 266 270 272 272 272 272 272 272 272 272 272 272 272 273 274 275 277 279 279 280 280 281 282 282 282 283 283 284 283 282 281 280 280 281 282 284 284 284 283 282 282 281 281 281 281
231 229 228 228 228 228 226 223 225 226 223 219 216 217 219 217 219 228 233 224 216 217 225 234 241 247 253 260 266 271 272 267 260 259 262 264 267 268 266 264 267 272 274 275 274 273 273 273 272 272 272 272 272 272 273 274 276 278 280 280 280 280 281 281 282 282 283 283 282 282 281 282 283 284 285 286 285 284 283 282 281 281 280 279 279
233 235 234 232 232 232 230 225 224 225 224 222 220 219 221 222 223 228 233 229 224 225 231 239 246 252 257 262 266 268 269 267 261 257 259 262 264 267 267 268 271 273 275 275 274 274 274 274 272 272 272 272 272 272 273 274 276 278 280 281 281 281 282 282 282 283 282 282 282 282 283 283 285 285 286 285 285 284 283 283 282 280 279 279 279
237 238 237 236 236 235 233 229 225 225 224 224 223 221 222 225 227 230 234 235 236 239 244 250 255 259 262 264 266 266 266 265 264 262 261 261 262 264 267 270 271 272 273 273 273 273 274 273 273 272 272 272 272 272 273 275 276 277 279 280 280 280 281 282 282 282 282 282 282 283 283 284 284 284 284 284 284 284 285 285 284 283 282 282 282
234 232 232 235 236 236 237 234 230 228 226 226 226 224 225 228 231 236 241 244 247 249 252 256 260 263 265 265 265 265 265 265 266 266 265 264 264 266 268 270 271 272 272 272 271 272 272 272 273 273 273 273 273 274 274 276 277 278 278 279 279 279 279 279 279 279 279 280 280 281 281 281 281 282 281 281 282 283 284 284 284 285 286 286 286
231 228 228 231 234 235 238 238 237 234 231 229 229 228 228 232 237 241 246 250 253 254 256 259 262 263 264 265 265 266 267 267 267 267 267 266 267 267 269 270 271 271 272 272 272 271 271 271 272 272 273 273 274 275 275 276 277 278 279 279 279 280 279 279 279 278 278 278 278 279 279 279 278 277 276 276 277 278 279 280 281 283 284 284 285
232 229 229 231 233 235 238 240 242 242 239 237 236 234 233 236 241 245 249 252 254 256 257 259 261 263 264 265 266 266 267 267 267 267 266 266 266 267 268 268 269 270 271 271 271 271 271 271 272 272 273 273 274 275 276 276 277 277 278 279 279 279 279 279 279 279 278 278 278 278 278 277 276 274 273 272 273 273 273 276 278 279 279 279 281
240 238 236 235 236 238 239 241 243 245 246 246 246 244 243 242 244 249 253 255 257 258 259 259 260 261 263 264 265 266 266 266 266 266 266 265 266 266 267 268 269 270 271 271 271 272 272 273 273 273 274 274 275 275 276 276 276 277 277 277 277 277 277 277 277 278 278 278 278 278 277 275 274 274 273 273 273 272 272 272 273 275 276 277 278
246 246 245 243 243 243 243 244 245 247 249 251 252 252 252 251 251 252 255 257 259 260 261 262 262 262 263 264 265 265 265 265 264 264 265 265 266 266 267 268 269 270 271 272 273 274 274 274 275 275 275 275 275 275 276 276 276 276 276 277 277 277 276 276 276 276 277 277 277 276 275 274 272 273 273 273 273 272 272 271 271 273 274 275 276
250 251 252 251 250 249 248 248 248 249 251 252 254 255 255 255 254 255 256 257 258 259 260 261 261 262 262 263 263 264 264 264 264 264 265 265 266 267 268 269 270 271 272 273 274 275 275 276 276 276 276 276 276 276 276 277 277 277 276 276 275 275 275 275 275 275 275 276 275 275 274 274 273 273 273 272 272 272 272 272 272 272 273 274 275
253 254 255 256 256 255 254 254 253 254 254 255 255 256 257 257 257 257 257 258 258 259 260 261 261 261 261 261 262 263 264 265 265 266 266 266 267 267 268 268 269 270 271 272 273 273 274 275 275 275 275 276 276 276 276 276 276 276 275 274 274 273 272 272 273 274 274 274 274 274 274 274 274 274 273 272 272 272 272 272 272 273 273 273 274
255 255 256 257 257 258 258 258 258 258 259 259 260 260 260 260 260 260 260 261 261 262 263 263 264 264 264 263 263 264 265 265 266 267 267 267 267 267 267 268 268 269 269 270 270 271 272 273 274 275 275 275 275 275 275 275 274 274 274 274 274 273 272 272 272 272 272 272 272 273 272 272 273 272 272 272 272 272 272 271 271 272 273 274 274
256 256 256 257 257 258 258 259 259 259 260 260 261 261 261 262 262 262 263 263 263 263 264 265 266 267 268 269 269 269 269 269 269 269 269 269 269 269 269 269 268 268 269 269 269 270 271 272 274 275 275 276 276 276 277 277 276 276 275 275 275 274 274 273 273 272 272 272 272 271 271 271 271 271 271 271 271 271 271 271 271 271 272 272 273
255 256 256 256 257 257 258 259 260 260 260 260 260 260 261 261 261 262 262 263 264 265 265 266 267 268 269 271 272 272 272 272 272 272 272 272 271 271 270 270 270 270 270 270 270 270 271 271 272 272 273 273 273 273 273 274 274 275 275 274 274 274 273 273 273 273 273 272 271 271 271 270 270 270 270 270 270 270 271 271 271 271 271 271 271
253 253 254 254 255 256 257 258 259 260 260 261 261 261 261 261 261 262 263 263 264 265 266 267 268 268 269 270 271 271 272 273 273 273 273 273 273 273 273 272 272 272 272 272 272 271 271 271 271 271 271 272 272 271 271 271 272 272 273 273 273 273 272 272 271 271 270 270 269 269 269 269 269 269 269 269 269 269 269 269 270 271 271 271 270
253 253 253 254 254 255 256 256 257 258 259 260 260 261 261 261 262 262 263 264 264 265 266 267 268 268 269 269 270 271 272 272 273 274 274 275 275 275 275 276 276 275 275 275 274 274 274 274 273 273 273 273 274 274 273 273 273 272 273 273 273 273 272 272 271 270 269 268 267 267 266 266 266 266 266 266 266 266 267 267 268 269 270 270 271
257 256 256 256 256 256 256 256 257 257 258 259 259 260 260 261 261 262 263 263 264 265 266 267 267 268 268 269 270 271 272 273 273 274 274 275 275 275 276 276 276 276 276 276 276 276 276 276 275 275 275 275 275 275 275 274 273 273 273 272 272 272 273 272 272 271 270 269 267 266 266 265 264 263 263 262 263 263 264 265 266 267 268 269 269
260 260 259 260 260 260 260 260 260 260 261 261 261 262 262 263 263 264 264 265 266 266 267 267 268 269 269 270 271 271 272 272 273 273 274 274 274 275 275 275 276 276 276 276 276 276 276 276 276 276 275 275 275 275 275 275 274 274 273 273 272 272 273 273 273 273 272 271 269 268 267 266 265 263 262 262 262 262 262 263 263 264 265 266 267
261 262 262 262 263 264 264 264 265 265 265 265 265 265 265 266 266 267 267 268 269 269 269 270 270 270 271 271 271 272 272 272 273 273 273 274 274 275 275 275 275 276 276 276 276 277 277 277 277 277 276 276 276 276 276 275 274 273 273 272 272 272 272 272 272 273 273 272 271 270 269 267 266 265 265 264 263 263 263 263 263 263 264 264 265
263 263 263 263 263 264 265 265 266 266 267 267 267 268 268 268 268 268 269 269 270 270 271 271 272 272 273 273 273 273 274 274 274 275 275 275 276 276 276 276 276 277 277 277 277 277 278 278 278 278 277 277 277 276 276 275 274 273 273 272 271 271 270 271 271 272 273 273 273 272 270 269 268 267 267 266 265 264 264 263 263 264 264 264 264
264 264 264 264 264 264 264 265 265 266 266 267 268 268 268 268 269 269 269 270 270 271 271 271 272 272 273 273 273 274 274 275 275 276 276 277 277 277 278 278 278 278 279 279 279 279 279 279 279 279 279 279 278 277 277 276 275 274 274 273 272 271 270 270 270 270 271 272 272 272 271 270 269 269 268 267 265 264 264 263 264 264 265 265 265
Height
10669 10673 10676 10677 10676 10677 10680 10682 10683 10685 10687 10689 10691 10692 10694 10695 10695 10696 10697 10697 10697 10698 10699 10700 10701 10701 10701 10702 10702 10703 10703 10703 10702 10702 10701 10701 10700 10699 10698 10697 10696 10696 10696 10696 10696 10695 10695 10696 10697 10699 10699 10699 10699 10699 10700 10701 10701 10702 10702 10703 10704 10703 10702 10701 10700 10700 10699 10699 10699 10699 10700 10700 10700 10699 10697 10696 10695 10694 10692 10692 10691 10690 10689 10688 10686
10663 10668 10670 10671 10671 10672 10674 10676 10678 10680 10682 10684 10685 10687 10688 10689 10690 10690 10691 10692 10692 10693 10694 10695 10696 10696 10696 10696 10696 10696 10696 10696 10696 10696 10697 10696 10696 10694 10694 10693 10692 10692 10692 10692 10691 10691 10691 10692 10693 10694 10695 10695 10695 10696 10696 10697 10698 10698 10698 10699 10699 10699 10699 10699 10698 10697 10696 10696 10696 10696 10696 10697 10697 10696 10694 10692 10692 10691 10689 10688 10687 10687 10686 10684 10682
10658 10661 10664 10664 10665 10666 10669 10671 10673 10675 10677 10679 10679 10680 10681 10682 10683 10684 10685 10686 10687 10688 10689 10690 10690 10691 10691 10692 10692 10691 10690 10689 10689 10690 10690 10691 10691 10690 10689 10688 10687 10687 10687 10687 10686 10686 10687 10688 10688 10689 10690 10691 10691 10691 10692 10693 10694 10694 10694 10695 10695 10695 10695 10695 10694 10693 10693 10692 10692 10692 10692 10692 10693 10692 10690 10689 10688 10687 10686 10684 10684 10683 10681 10679 10679
10652 10655 10657 10658 10659 10661 10664 10667 10669 10670 10672 10672 10673 10673 10674 10676 10677 10678 10679 10680 10681 10682 10683 10684 10685 10685 10686 10687 10687 10686 10685 10684 10684 10684 10685 10685 10685 10685 10685 10684 10684 10683 10683 10683 10682 10681 10682 10683 10684 10685 10686 10686 10686 10686 10686 10687 10689 10690 10690 10690 10690 10690 10689 10689 10689 10689 10688 10688 10688 10688 10688 10688 10688 10687 10686 10685 10683 10682 10682 10681 10680 10679 10677 10675 10675
10647 10650 10651 10652 10654 10656 10659 10662 10663 10664 10665 10666 10666 10667 10668 10670 10671 10672 10673 10674 10676 10677 10678 10678 10679 10680 10681 10682 10682 10682 10681 10680 10680 10680 10680 10680 10681 10681 10681 10681 10680 10680 10680 10680 10679 10678 10678 10679 10680 10681 10681 10682 10681 10680 10681 10682 10683 10684 10685 10684 10684 10685 10684 10684 10684 10683 10684 10684 10683 10684 10684 10684 10684 10683 10683 10680 10678 10677 10677 10677 10676 10674 10672 10672 10671
10642 10645 10646 10647 10649 10651 10654 10657 10658 10659 10659 10659 10659 10660 10662 10664 10665 10666 10667 10668 10670 10671 10672 10673 10674 10675 10675 10676 10676 10677 10677 10676 10676 10675 10675 10676 10676 10677 10678 10678 10678 10677 10677 10677 10676 10675 10675 10675 10676 10677 10678 10678 10677 10676 10676 10677 10677 10679 10679 10679 10679 10680 10679 10679 10679 10679 10679 10680 10680 10680 10681 10681 10680 10680 10679 10677 10674 10672 10671 10672 10672 10671 10669 10668 10668
10637 10640 10641 10642 10643 10646 10649 10652 10653 10653 10653 10652 10653 10654 10656 10658 10659 10661 10662 10663 10664 10665 10666 10667 10668 10669 10670 10670 10670 10671 10672 10672 10671 10670 10670 10670 10672 10673 10674 10674 10674 10674 10674 10674 10674 10673 10672 10672 10673 10673 10674 10674 10673 10672 10672 10672 10673 10674 10675 10675 10675 10675 10675 10675 10675 10675 10675 10676 10676 10677 10677 10677 10677 10676 10676 10674 10672 10669 10668 10667 10667 10666 10665 10664 10663
10632 10635 10637 10637 10638 10641 10645 10647 10648 10647 10647 10646 10647 10649 10651 10653 10654 10656 10656 10657 10658 10659 10661 10662 10663 10664 10664 10664 10665 10666 10666 10666 10665 10664 10664 10665 10666 10668 10669 10670 10670 10670 10669 10669 10669 10670 10670 10669 10669 10669 10670 10670 10669 10668 10668 10668 10668 10670 10671 10670 10670 10670 10671 10671 10671 10671 10672 10673 10673 10674 10674 10673 10673 10672 10672 10670 10669 10667 10665 10663 10662 10661 10660 10660 10659
10627 10630 10632 10632 10633 10637 10641 10642 10642 10641 10641 10641 10643 10645 10647 10648 10650 10650 10651 10652 10653 10654 10655 10656 10657 10657 10657 10658 10659 10659 10659 10660 10660 10659 10659 10659 10660 10662 10664 10665 10666 10665 10665 10664 10664 10665 10666 10666 10665 10665 10665 10665 10665 10664 10665 10665 10664 10665 10666 10666 10666 10666 10666 10667 10667 10667 10668 10669 10670 10670 10670 10669 10668 10667 10667 10667 10666 10664 10662 10660 10657 10655 10654 10655 10654
10623 10625 10626 10626 10628 10632 10635 10636 10636 10636 10637 10638 10639 10641 10643 10644 10644 10645 10646 10647 10648 10649 10650 10651 10651 10651 10651 10652 10653 10653 10653 10654 10654 10654 10653 10654 10654 10656 10658 10660 10661 10661 10660 10660 10660 10661 10662 10662 10662 10661 10661 10661 10661 10660 10660 10660 10660 10661 10661 10662 10661 10661 10662 10663 10663 10663 10664 10665 10666 10666 10665 10664 10663 10663 10663 10662 10662 10661 10659 10656 10653 10650 10649 10649 10649
10617 10620 10620 10621 10623 10627 10629 10630 10631 10632 10633 10634 10636 10637 10638 10639 10639 10639 10640 10641 10642 10643 10644 10645 10645 10646 10646 10647 10648 10648 10648 10648 10648 10648 10648 10649 10649 10650 10651 10653 10654 10656 10656 10656 10656 10656 10657 10658 10658 10657 10657 10656 10656 10656 10655 10655 10656 10656 10657 10657 10657 10657 10657 10658 10659 10659 10660 10661 10661 10661 10660 10660 10659 10659 10659 10657 10657 10656 10654 10651 10649 10648 10646 10645 10644
10612 10615 10615 10616 10619 10621 10623 10625 10627 10628 10629 10630 10631 10632 10633 10633 10633 10634 10635 10636 10636 10638 10639 10640 10640 10641 10642 10642 10643 10643 10643 10643 10643 10643 10643 10644 10645 10645 10646 10646 10647 10649 10651 10652 10652 10652 10652 10653 10654 10653 10653 10652 10652 10652 10651 10650 10650 10652 10653 10653 10653 10653 10653 10653 10654 10655 10656 10657 10657 10656 10656 10655 10655 10655 10654 10653 10652 10651 10649 10646 10645 10644 10643 10641 10640
10608 10610 10610 10612 10614 10615 10617 10620 10622 10623 10624 10625 10626 10627 10627 10627 10627 10628 10629 10630 10631 10632 10634 10635 10636 10636 10637 10638 10638 10638 10639 10639 10638 10638 10638 10639 10640 10641 10641 10641 10641 10643 10645 10647 10648 10648 10647 10648 10649 10649 10648 10648 10648 10648 10647 10646 10646 10647 10648 10649 10649 10650 10649 10649 10650 10651 10652 10652 10652 10652 10651 10651 10650 10650 10649 10648 10648 10646 10643 10641 10641 10640 10638 10636 10635
10603 10605 10605 10607 10609 10610 10612 10615 10616 10617 10619 10620 10621 10621 10621 10621 10622 10622 10623 10624 10625 10626 10628 10629 10630 10630 10632 10632 10633 10634 10634 10634 10634 10634 10634 10635 10636 10636 10636 10636 10636 10637 10639 10641 10643 10643 10643 10643 10643 10644 10644 10644 10643 10643 10643 10643 10642 10642 10643 10643 10644 10645 10646 10646 10646 10647 10648 10648 10648 10647 10646 10646 10646 10645 10644 10643 10644 10642 10639 10636 10636 10635 10633 10631 10631
10599 10600 10600 10602 10604 10606 10607 10609 10611 10612 10614 10615 10616 10616 10616 10616 10617 10618 10619 10620 10620 10620 10621 10622 10623 10624 10626 10627 10628 10629 10629 10629 10629 10629 10630 10630 10631 10631 10632 10632 10632 10632 10633 10635 10637 10639 10638 10638 10638 10638 10640 10640 10639 10639 10639 10639 10638 10638 10638 10638 10638 10639 10640 10642 10642 10643 10643 10643 10643 10642 10642 10641 10641 10639 10637 10637 10638 10637 10635 10632 10632 10631 10628 10627 10627
10594 10595 10596 10598 10600 10601 10602 10605 10608 10609 10610 10610 10611 10611 10612 10613 10614 10615 10615 10615 10614 10615 10616 10618 10619 10620 10622 10623 10624 10624 10624 10624 10624 10624 10624 10625 10626 10626 10626 10627 10627 10627 10628 10630 10632 10633 10634 10633 10633 10633 10634 10635 10635 10635 10635 10635 10635 10635 10634 10633 10633 10633 10634 10635 10636 10637 10638 10638 10638 10638 10637 10637 10636 10633 10631 10630 10631 10631 10630 10628 10627 10626 10624 10622 10621
10588 10590 10592 10594 10595 10597 10600 10603 10605 10605 10605 10606 10607 10607 10608 10609 10610 10610 10609 10609 10610 10612 10614 10615 10616 10616 10618 10618 10619 10619 10619 10618 10619 10619 10619 10620 10621 10621 10622 10622 10623 10623 10623 10624 10626 10627 10628 10628 10628 10628 10629 10630 10630 10630 10631 10631 10631 10631 10630 10630 10629 10629 10629 10630 10630 10631 10632 10632 10632 10632 10632 10631 10630 10628 10626 10625 10624 10624 10623 10623 10623 10622 10620 10617 10616
10583 10586 10588 10590 10592 10594 10597 10600 10601 10602 10603 10604 10604 10604 10604 10605 10606 10606 10605 10606 10608 10610 10610 10611 10611 10612 10613 10614 10615 10615 10614 10614 10614 10614 10615 10616 10616 10617 10617 10617 10618 10618 10618 10619 10620 10621 10623 10623 10623 10623 10624 10624 10624 10624 10625 10625 10625 10625 10625 10625 10625 10624 10624 10624 10625 10625 10626 10626 10626 10626 10626 10625 10625 10623 10622 10620 10618 10616 10616 10616 10617 10617 10615 10613 10611
10579 10583 10586 10588 10590 10593 10595 10597 10598 10600 10601 10601 10601 10601 10602 10603 10603 10603 10603 10605 10605 10605 10606 10607 10607 10609 10610 10610 10611 10611 10610 10610 10610 10610 10611 10611 10612 10612 10613 10613 10614 10614 10614 10614 10615 10616 10617 10617 10618 10618 10618 10618 10618 10619 10619 10619 10619 10619 10619 10619 10619 10619 10619 10619 10619 10619 10620 10620 10620 10620 10620 10620 10619 10618 10617 10615 10613 10611 10610 10609 10609 10609 10609 10607 10605
10577 10581 10585 10587 10590 10592 10593 10595 10597 10598 10599 10598 10598 10599 10600 10601 10601 10601 10601 10602 10602 10602 10602 10603 10604 10605 10606 10606 10607 10606 10607 10606 10606 10606 10607 10607 10608 10608 10608 10608 10609 10609 10609 10610 10610 10610 10611 10612 10612 10612 10613 10613 10613 10613 10613 10613 10613 10613 10613 10613 10613 10613 10613 10612 10613 10613 10613 10613 10613 10614 10614 10614 10614 10613 10612 10610 10608 10607 10605 10604 10603 10602 10601 10600 10598
10575 10579 10584 10587 10590 10592 10593 10594 10596 10597 10598 10597 10598 10598 10598 10598 10598 10598 10598 10599 10600 10599 10599 10600 10600 10601 10602 10602 10602 10602 10603 10603 10602 10602 10603 10603 10604 10603 10604 10604 10604 10604 10604 10604 10604 10604 10605 10606 10606 10606 10607 10607 10607 10607 10607 10608 10608 10607 10607 10607 10607 10606 10606 10606 10607 10607 10606 10606 10606 10607 10607 10607 10607 10607 10605 10604 10603 10602 10601 10600 10599 10597 10595 10594 10592
10575 10580 10586 10590 10592 10592 10593 10593 10595 10598 10600 10600 10599 10597 10596 10596 10596 10595 10595 10595 10595 10596 10597 10597 10597 10597 10597 10598 10598 10598 10598 10598 10598 10598 10598 10599 10599 10599 10599 10599 10599 10598 10598 10598 10598 10598 10599 10599 10600 10600 10600 10600 10601 10601 10602 10602 10602 10601 10601 10601 10601 10600 10600 10600 10600 10600 10600 10599 10599 10600 10600 10600 10600 10599 10598 10598 10597 10596 10594 10594 10593 10592 10590 10589 10588
10576 10582 10585 10588 10589 10588 10588 10589 10592 10597 10599 10599 10597 10595 10594 10593 10593 10591 10590 10590 10590 10591 10593 10594 10594 10594 10593 10593 10592 10591 10592 10592 10592 10592 10593 10593 10594 10594 10594 10594 10593 10592 10591 10592 10592 10592 10592 10593 10594 10594 10594 10594 10594 10595 10595 10595 10595 10595 10595 10595 10595 10594 10594 10594 10594 10593 10593 10592 10592 10592 10592 10592 10592 10591 10590 10590 10589 10588 10588 10587 10586 10585 10584 10584 10583
10573 10577 10577 10579 10580 10580 10581 10583 10587 10591 10591 10589 10590 10591 10590 10590 10589 10587 10586 10586 10586 10587 10589 10589 10590 10589 10588 10587 10586 10584 10584 10585 10585 10586 10586 10586 10587 10587 10587 10587 10586 10586 10585 10585 10585 10586 10586 10587 10588 10588 10588 10588 10588 10588 10588 10588 10588 10587 10588 10588 10587 10587 10587 10587 10586 10586 10585 10585 10584 10583 10584 10584 10584 10583 10582 10582 10581 10580 10580 10580 10579 10577 10576 10576 10577
10565 10569 10569 10570 10572 10573 10575 10579 10584 10586 10584 10582 10584 10586 10587 10587 10584 10583 10582 10582 10583 10585 10587 10587 10587 10585 10581 10579 10578 10577 10577 10577 10579 10579 10579 10580 10580 10579 10579 10580 10579 10579 10579 10579 10580 10580 10580 10581 10582 10582 10582 10582 10582 10582 10583 10582 10582 10581 10581 10581 10580 10580 10580 10579 10579 10578 10577 10577 10576 10575 10575 10575 10575 10574 10574 10573 10572 10571 10571 10573 10573 10571 10568 10567 10568
10558 10561 10563 10563 10565 10567 10568 10574 10579 10579 10578 10578 10579 10580 10582 10584 10582 10579 10578 10578 10579 10581 10583 10583 10583 10581 10577 10573 10571 10570 10571 10572 10572 10573 10573 10573 10573 10573 10573 10573 10573 10573 10573 10573 10574 10574 10574 10575 10575 10576 10576 10576 10576 10576 10576 10576 10576 10575 10575 10575 10574 10573 10573 10573 10572 10571 10570 10570 10569 10567 10567 10566 10566 10566 10565 10565 10563 10561 10561 10563 10564 10564 10562 10560 10559
10551 10554 10556 10557 10559 10560 10563 10568 10571 10570 10571 10573 10573 10573 10575 10578 10578 10576 10575 10574 10574 10574 10576 10576 10576 10575 10572 10568 10566 10566 10566 10567 10567 10566 10566 10566 10566 10567 10567 10567 10567 10567 10567 10567 10568 10568 10568 10569 10569 10569 10569 10569 10569 10569 10569 10569 10569 10568 10568 10567 10567 10566 10566 10566 10565 10564 10563 10562 10561 10560 10558 10557 10557 10557 10556 10556 10555 10553 10551 10552 10553 10555 10555 10555 10554
10545 10547 10549 10551 10553 10554 10558 10561 10562 10563 10565 10567 10567 10567 10567 10568 10569 10569 10569 10569 10568 10566 10566 10566 10566 10567 10565 10562 10561 10561 10561 10561 10562 10561 10560 10559 10559 10560 10560 10560 10561 10561 10561 10562 10562 10562 10562 10563 10563 10563 10563 10562 10562 10562 10561 10561 10561 10561 10561 10560 10559 10558 10558 10558 10558 10557 10556 10554 10553 10552 10551 10549 10548 10547 10547 10547 10548 10546 10544 10543 10543 10544 10545 10547 10548
10538 10540 10542 10545 10547 10549 10552 10554 10556 10557 10558 10559 10560 10561 10561 10561 10562 10562 10562 10563 10563 10562 10559 10557 10556 10557 10556 10556 10557 10556 10555 10555 10555 10554 10553 10553 10552 10553 10554 10555 10556 10556 10556 10556 10557 10557 10557 10557 10557 10557 10556 10556 10555 10555 10554 10554 10554 10554 10553 10553 10552 10551 10551 10551 10550 10549 10548 10547 10546 10545 10543 10542 10541 10540 10539 10539 10539 10539 10538 10536 10535 10535 10536 10536 10538
10531 10533 10535 10538 10540 10543 10546 10548 10550 10552 10553 10554 10555 10556 10557 10558 10559 10558 10557 10558 10559 10559 10556 10551 10548 10548 10549 10551 10552 10552 10551 10550 10548 10546 10546 10547 10546 10546 10548 10548 10550 10550 10551 10551 10551 10551 10551 10551 10550 10550 10549 10549 10548 10547 10547 10547 10547 10546 10545 10545 10544 10544 10544 10543 10542 10541 10540 10539 10539 10537 10536 10535 10534 10533 10532 10531 10531 10532 10532 10530 10529 10528 10528 10527 10528
10524 10526 10529 10532 10535 10538 10541 10543 10545 10547 10548 10549 10549 10551 10552 10553 10553 10553 10552 10551 10551 10550 10548 10545 10542 10542 10544 10546 10547 10547 10547 10548 10546 10540 10537 10539 10540 10540 10540 10541 10541 10543 10543 10544 10545 10545 10545 10545 10544 10543 10542 10541 10541 10540 10539 10539 10539 10538 10537 10537 10537 10537 10537 10536 10535 10534 10532 10532 10531 10530 10528 10527 10526 10526 10525 10524 10523 10523 10523 10523 10523 10522 10521 10520 10520
10518 10521 10524 10527 10530 10533 10535 10537 10539 10540 10542 10542 10542 10544 10545 10546 10545 10544 10545 10544 10542 10540 10539 10538 10538 10538 10539 10540 10541 10542 10544 10546 10546 10539 10532 10531 10532 10532 10533 10533 10533 10534 10535 10537 10537 10538 10538 10538 10537 10536 10535 10533 10532 10532 10531 10531 10530 10529 10529 10529 10529 10528 10528 10528 10527 10526 10526 10525 10523 10522 10520 10519 10518 10517 10516 10515 10514 10513 10513 10514 10515 10515 10514 10513 10513
10514 10517 10520 10521 10523 10525 10527 10528 10530 10532 10534 10534 10535 10535 10536 10537 10536 10536 10537 10538 10535 10533 10533 10533 10534 10534 10535 10536 10536 10537 10538 10540 10542 10538 10531 10527 10526 10525 10525 10526 10526 10527 10527 10528 10528 10529 10530 10529 10529 10528 10527 10525 10524 10523 10523 10522 10522 10522 10521 10521 10520 10519 10519 10519 10519 10518 10518 10516 10515 10513 10512 10510 10510 10509 10508 10507 10506 10504 10504 10504 10505 10505 10505 10505 10505
10509 10512 10513 10513 10514 10516 10517 10519 10522 10524 10525 10525 10526 10527 10527 10528 10528 10528 10529 10530 10529 10528 10527 10527 10528 10529 10530 10530 10530 10531 10532 10532 10533 10532 10528 10524 10521 10519 10518 10518 10519 10520 10520 10520 10520 10520 10520 10520 10520 10519 10518 10517 10516 10515 10515 10514 10513 10513 10513 10513 10513 10512 10511 10511 10510 10510 10509 10507 10506 10504 10503 10503 10502 10501 10500 10499 10498 10496 10495 10494 10493 10494 10495 10496 10496
10502 10505 10506 10505 10507 10508 10509 10511 10514 10515 10516 10516 10518 10520 10522 10522 10522 10521 10521 10521 10521 10521 10520 10520 10521 10521 10521 10522 10522 10523 10524 10524 10524 10523 10521 10518 10516 10514 10512 10511 10511 10511 10511 10511 10511 10511 10511 10510 10510 10510 10509 10508 10507 10507 10506 10505 10504 10504 10504 10504 10504 10504 10504 10503 10502 10502 10501 10499 10498 10497 10497 10496 10495 10494 10493 10491 10490 10488 10485 10484 10483 10483 10484 10485 10485
10494 10497 10498 10498 10500 10501 10502 10504 10506 10506 10508 10509 10510 10513 10515 10516 10516 10514 10513 10512 10512 10512 10513 10513 10513 10513 10513 10513 10513 10513 10514 10515 10515 10514 10513 10511 10509 10507 10505 10503 10502 10502 10502 10502 10502 10502 10502 10502 10502 10501 10501 10500 10500 10499 10498 10498 10497 10496 10495 10496 10495 10495 10495 10493 10493 10492 10491 10491 10491 10491 10491 10490 10488 10488 10486 10484 10484 10484 10479 10476 10475 10475 10476 10475 10474
10486 10489 10491 10492 10493 10494 10496 10497 10497 10498 10500 10501 10502 10505 10508 10508 10508 10507 10505 10504 10504 10503 10505 10506 10505 10504 10504 10503 10504 10505 10505 10506 10506 10505 10504 10502 10501 10499 10497 10496 10494 10493 10493 10493 10493 10493 10493 10493 10493 10493 10493 10492 10492 10491 10491 10490 10490 10489 10488 10488 10488 10488 10486 10484 10482 10481 10481 10481 10481 10482 10485 10484 10480 10479 10478 10477 10478 10478 10475 10472 10469 10468 10468 10467 10465
10477 10480 10483 10485 10486 10487 10489 10490 10490 10490 10491 10491 10493 10496 10498 10500 10501 10499 10496 10495 10494 10493 10494 10496 10497 10496 10494 10494 10495 10495 10496 10496 10496 10495 10494 10493 10491 10490 10489 10487 10486 10485 10484 10484 10484 10484 10485 10485 10484 10484 10485 10485 10484 10483 10482 10482 10481 10481 10481 10480 10480 10480 10480 10477 10473 10472 10472 10472 10471 10472 10476 10476 10471 10468 10469 10469 10469 10469 10469 10467 10464 10461 10459 10458 10459
10468 10471 10474 10477 10478 10480 10481 10482 10482 10482 10482 10483 10484 10485 10487 10490 10491 10490 10488 10486 10485 10485 10484 10484 10485 10486 10485 10484 10484 10485 10485 10486 10486 10486 10485 10484 10483 10481 10480 10479 10478 10476 10475 10474 10474 10475 10475 10475 10475 10475 10475 10475 10475 10473 10472 10472 10471 10471 10471 10471 10471 10471 10470 10468 10465 10464 10463 10463 10463 10462 10463 10463 10461 10459 10459 10460 10460 10460 10459 10457 10456 10454 10451 10449 10450
10460 10462 10464 10466 10468 10470 10471 10472 10472 10473 10473 10474 10475 10475 10477 10478 10479 10480 10479 10477 10476 10476 10475 10474 10474 10475 10475 10474 10474 10474 10474 10475 10476 10476 10476 10475 10474 10473 10472 10471 10470 10468 10467 10466 10466 10466 10465 10464 10464 10464 10464 10464 10464 10463 10462 10461 10461 10461 10460 10460 10460 10461 10460 10458 10456 10456 10455 10454 10454 10453 10452 10451 10451 10450 10450 10450 10450 10450 10449 10447 10445 10445 10443 10441 10441
10453 10454 10455 10456 10458 10459 10460 10461 10462 10463 10463 10463 10465 10465 10466 10466 10468 10469 10469 10467 10466 10466 10465 10464 10464 10464 10464 10464 10464 10465 10465 10466 10466 10466 10466 10466 10465 10464 10463 10462 10461 10461 10460 10459 10458 10457 10456 10455 10454 10453 10453 10453 10453 10453 10452 10451 10451 10450 10449 10449 10450 10450 10449 10448 10448 10447 10446 10445 10444 10443 10443 10442 10441 10441 10441 10441 10440 10440 10440 10438 10435 10433 10432 10433 10434
10445 10446 10446 10447 10448 10448 10449 10450 10451 10452 10452 10453 10454 10455 10455 10456 10457 10458 10458 10457 10457 10456 10454 10453 10453 10452 10453 10454 10455 10456 10457 10457 10456 10456 10455 10455 10454 10454 10453 10453 10452 10452 10452 10451 10450 10449 10448 10447 10445 10444 10444 10443 10443 10442 10442 10441 10440 10439 10438 10438 10439 10438 10437 10438 10439 10438 10437 10436 10434 10433 10432 10432 10432 10432 10432 10432 10432 10431 10430 10429 10426 10423 10422 10424 10424
10435 10436 10437 10438 10438 10438 10438 10439 10440 10441 10442 10443 10444 10444 10445 10446 10447 10447 10447 10446 10445 10444 10444 10443 10443 10442 10442 10443 10443 10444 10445 10445 10445 10444 10444 10443 10443 10442 10442 10442 10442 10442 10442 10442 10441 10440 10440 10439 10438 10436 10435 10434 10433 10432 10431 10430 10428 10427 10427 10427 10427 10427 10426 10426 10427 10427 10426 10425 10424 10423 10422 10422 10422 10422 10422 10423 10424 10422 10421 10419 10416 10414 10414 10414 10414
10425 10426 10426 10427 10427 10427 10428 10429 10429 10430 10431 10432 10434 10435 10436 10436 10436 10435 10435 10434 10434 10434 10434 10434 10434 10433 10433 10432 10432 10432 10432 10432 10431 10431 10431 10431 10431 10431 10430 10430 10430 10430 10431 10431 10430 10430 10429 10429 10429 10428 10426 10424 10424 10424 10423 10421 10418 10416 10416 10416 10416 10415 10414 10415 10416 10416 10415 10414 10413 10412 10412 10412 10412 10412 10412 10414 10414 10412 10411 10409 10405 10404 10404 10405 10405
10416 10416 10417 10418 10418 10418 10419 10420 10420 10420 10421 10422 10424 10425 10425 10424 10424 10425 10425 10425 10425 10424 10424 10424 10424 10423 10423 10423 10422 10421 10420 10420 10419 10419 10419 10419 10418 10418 10417 10417 10417 10417 10417 10417 10417 10416 10416 10416 10417 10416 10415 10413 10412 10412 10412 10412 10409 10406 10405 10404 10403 10403 10403 10403 10404 10403 10402 10401 10400 10400 10400 10401 10401 10402 10403 10403 10402 10401 10400 10398 10395 10393 10394 10394 10394
10406 10407 10408 10409 10409 10409 10410 10412 10412 10412 10412 10413 10414 10414 10414 10414 10414 10415 10415 10415 10414 10414 10414 10414 10414 10413 10413 10412 10411 10410 10409 10408 10408 10407 10406 10406 10405 10405 10404 10403 10402 10402 10402 10402 10402 10402 10402 10402 10402 10402 10402 10401 10399 10397 10398 10398 10395 10394 10393 10392 10391 10390 10389 10389 10389 10389 10388 10387 10387 10387 10387 10389 10390 10390 10391 10391 10391 10390 10389 10387 10385 10383 10383 10382 10381
10395 10397 10398 10399 10398 10399 10401 10402 10402 10403 10403 10404 10404 10404 10404 10404 10405 10405 10405 10404 10404 10404 10404 10404 10403 10402 10401 10401 10400 10399 10397 10396 10395 10394 10394 10393 10392 10392 10392 10390 10389 10389 10388 10388 10387 10387 10387 10387 10388 10388 10389 10389 10387 10384 10383 10382 10381 10380 10380 10379 10378 10377 10375 10373 10374 10374 10372 10372 10372 10373 10373 10375 10376 10377 10377 10377 10378 10378 10377 10376 10374 10373 10372 10371 10370
10381 10385 10387 10388 10388 10388 10390 10391 10392 10393 10393 10394 10395 10395 10394 10394 10394 10394 10393 10393 10394 10394 10393 10392 10391 10390 10390 10389 10388 10387 10385 10384 10382 10381 10380 10380 10379 10379 10379 10378 10376 10375 10374 10374 10373 10373 10372 10373 10374 10374 10374 10374 10374 10371 10368 10366 10366 10366 10366 10365 10365 10364 10361 10359 10360 10360 10357 10356 10357 10358 10359 10360 10360 10361 10362 10364 10365 10366 10365 10364 10362 10361 10361 10360 10359
10369 10373 10376 10378 10377 10378 10379 10379 10380 10381 10381 10381 10383 10384 10383 10383 10382 10382 10382 10382 10382 10381 10380 10379 10378 10377 10376 10375 10374 10373 10372 10370 10369 10368 10366 10366 10365 10365 10364 10363 10362 10360 10360 10359 10358 10357 10356 10356 10357 10358 10358 10359 10360 10357 10352 10351 10352 10352 10351 10351 10351 10351 10349 10347 10347 10346 10344 10342 10342 10342 10344 10345 10345 10346 10348 10350 10351 10352 10351 10350 10349 10349 10349 10349 10348
10358 10360 10363 10366 10367 10367 10368 10368 10368 10368 10368 10368 10369 10370 10370 10370 10369 10369 10369 10369 10368 10368 10367 10366 10365 10364 10362 10361 10360 10359 10357 10356 10355 10353 10352 10351 10350 10349 10349 10348 10346 10344 10343 10343 10344 10343 10341 10340 10340 10341 10341 10342 10344 10342 10337 10334 10336 10338 10337 10336 10337 10337 10336 10335 10334 10332 10331 10330 10328 10327 10327 10329 10330 10332 10334 10336 10337 10337 10336 10336 10335 10336 10336 10336 10335
10345 10346 10349 10351 10353 10355 10356 10356 10357 10357 10357 10357 10357 10357 10356 10356 10356 10356 10356 10355 10355 10355 10354 10353 10352 10351 10349 10348 10347 10345 10344 10343 10341 10340 10338 10337 10335 10333 10332 10331 10331 10329 10327 10326 10326 10327 10326 10325 10325 10324 10323 10323 10325 10325 10322 10320 10320 10321 10322 10322 10322 10323 10323 10323 10322 10321 10320 10317 10313 10311 10312 10313 10315 10318 10320 10321 10322 10322 10321 10320 10321 10322 10323 10322 10321